Погода в Долми

Россия / Хабаровский край     47°22′26″N   135°37′21″E
темп.,
°C
ветер,
м/с
пор.,
м/с
влажн.,
%
обл.,
%
осадки,
мм/ч
давл.,
гПа
погр.,
м
6 марта, сб
сб601:00−24юз279594 0.0 1028270
04:00−27ююз349791 0.0 103095
07:00−28ю239828 0.0 103278
10:00−23ююз369153 0.0 1033356
13:00−17зюз477562 0.0 1031968
16:00−15з477481 0.1 10301027
19:00−19юз2692100 0.0 1031139
22:00−20ююз379450 0.0 1032158
7 марта, вс
вс701:00−22ю34976 0.0 103283
04:00−21ю369952 0.0 1031148
07:00−21ю3699100 0.0 1030181
10:00−17ююз4888100 0.0 1029356
13:00−11юз4878100 0.0 1026657
16:00−9юз477395 0.0 1024883
19:00−12юз2791100 0.0 1024208
22:00−13ю2396100 0.0 102588
8 марта, пн
пн801:00−15ююз2397100 0.0 102462
04:00−15ююз229794 0.1 102559
07:00−17ююз239898 0.1 102648
10:00−12ююз358786 0.1 1027298
13:00−7юз467834 0.0 1027734
16:00−5юз357767 0.1 1025973
19:00−10ююз269497 0.1 1026164
22:00−13ю239649 0.1 102660
9 марта, вт
вт901:00−13ююв349466 0.0 1024118
04:00−13ю369183 0.0 1022143
07:00−13ю36900 0.0 1019137
10:00−5ююз513754 0.0 1015558
13:00−1ююз7137652 0.0 1011800
16:00−1юз6118976 0.2 10091134
19:00−3зюз31089100 1.0 1009729
22:00−5з3997100 1.4 1011654
10 марта, ср
ср1001:00−8зсз61393100 1.5 1013814
04:00−10сз51194100 1.9 1017505
07:00−12зсз1397100 0.1 102295
10:00−8зюз128099 0.1 1025318
13:00−3зюз357638 0.0 1025810
16:00−2з356669 0.1 10241060
19:00−7ююз259214 0.0 1025107
22:00−8ю269457 0.0 1027185